sat.trackr.live / text

‹ back to catalog

STARLINK-35578

NORAD 66168 · 2025-240Y

PAYLOAD ACTIVE UNKNOWN

§ Identity

Operator
Country
US
Launch date
2025-10-25
Launch site
AFWTR
Launch vehicle
Mass (kg)
RCS (m²)

Purposes: comms

External: N2YO · Heavens-Above · Gunter

§ Orbital elements

Epoch: 2026-05-25T04:52:39.956736Z

Period
94.11 min
Inclination
53.1577°
Eccentricity
0.0000975
Mean motion
15.30177323 rev/d
Perigee alt
474.6 km
Apogee alt
476.0 km
Semi-major
6,853.4 km
B*
8.4701e-4
RAAN
67.3567°
Arg perigee
105.1707°
Mean anomaly
254.9402°
Rev number
3,370

§ Raw data

STARLINK-355781 66168U 25240Y   26145.20324024  .00024793  00000+0  84701-3 0  99922 66168  53.1577  67.3567 0000975 105.1707 254.9402 15.30177323 33704

JSON: /api/v1/satellites/66168 · /tle

For live sub-satellite position, see the globe view (requires WebGL).

§ Visibility from observer

Set your observer location to see the next 7 days of passes ≥ 10°. The values pass through the URL so the page stays shareable.

No JS? Fill the form by hand. The geolocation button needs JavaScript.